Time,TemperatureF,DewpointF,PressureIn,WindDirection,WindDirectionDegrees,WindSpeedMPH,WindSpeedGustMPH,Humidity,HourlyPrecipIn,Conditions,Clouds,dailyrainin,SoftwareType,DateUTC
2013-03-25 00:00:00,23.5,18.2,30.09,West,277,0.0,0.0,80,0.00,RA,,0.00,WeatherDisplay:10.37,2013-03-25 05:00:00,
2013-03-25 00:05:00,23.4,18.1,30.09,ESE,109,0.0,0.0,80,0.00,RA,,0.00,WeatherDisplay:10.37,2013-03-25 05:05:00,
2013-03-25 00:10:00,23.4,18.1,30.09,South,190,0.0,0.0,80,0.00,,,0.00,WeatherDisplay:10.37,2013-03-25 05:10:00,
2013-03-25 00:15:00,23.5,18.2,30.09,WSW,247,0.0,0.0,80,0.00,,,0.00,WeatherDisplay:10.37,2013-03-25 05:15:00,
2013-03-25 00:20:00,23.4,17.8,30.09,South,184,0.0,0.0,79,0.00,,,0.00,WeatherDisplay:10.37,2013-03-25 05:20:00,
2013-03-25 00:25:00,23.4,18.1,30.09,SSE,159,0.0,0.0,80,0.00,,,0.00,WeatherDisplay:10.37,2013-03-25 05:25:00,
2013-03-25 00:30:00,23.4,18.1,30.09,ESE,113,0.0,0.0,80,0.00,,,0.00,WeatherDisplay:10.37,2013-03-25 05:30:00,
2013-03-25 00:35:00,23.3,18.0,30.09,East,86,0.0,0.0,80,0.00,,,0.00,WeatherDisplay:10.37,2013-03-25 05:35:00,
2013-03-25 00:40:00,23.2,17.9,30.09,SSE,147,0.0,0.0,80,0.00,,,0.00,WeatherDisplay:10.37,2013-03-25 05:40:00,
2013-03-25 00:45:00,23.3,18.0,30.09,SSW,194,0.0,0.0,80,0.00,,,0.00,WeatherDisplay:10.37,2013-03-25 05:45:00,
2013-03-25 00:50:00,23.3,18.0,30.09,NNW,335,0.0,0.0,80,0.00,,,0.00,WeatherDisplay:10.37,2013-03-25 05:50:00,
2013-03-25 00:55:00,23.3,18.0,30.09,SE,134,0.0,0.0,80,0.00,,,0.00,WeatherDisplay:10.37,2013-03-25 05:55:00,
2013-03-25 01:00:00,23.2,17.9,30.08,West,279,0.0,0.0,80,0.00,,,0.00,WeatherDisplay:10.37,2013-03-25 06:00:00,
2013-03-25 01:05:00,23.2,17.9,30.08,West,274,0.0,0.0,80,0.00,,,0.00,WeatherDisplay:10.37,2013-03-25 06:05:00,
2013-03-25 01:10:00,23.1,17.8,30.08,East,94,0.0,0.0,80,0.00,,,0.00,WeatherDisplay:10.37,2013-03-25 06:10:00,
2013-03-25 01:15:00,23.0,17.7,30.08,South,186,0.0,0.0,80,0.00,,,0.00,WeatherDisplay:10.37,2013-03-25 06:15:00,
2013-03-25 01:20:00,23.0,17.7,30.08,SSW,213,0.0,0.0,80,0.00,,,0.00,WeatherDisplay:10.37,2013-03-25 06:20:00,
2013-03-25 01:26:00,23.0,18.0,30.09,SW,217,0.0,0.0,81,0.00,,,0.00,WeatherDisplay:10.37,2013-03-25 06:26:00,
2013-03-25 01:31:00,23.0,18.0,30.08,West,271,0.0,0.0,81,0.00,,,0.00,WeatherDisplay:10.37,2013-03-25 06:31:00,
2013-03-25 01:36:00,22.9,17.9,30.08,West,259,0.0,0.0,81,0.00,,,0.00,WeatherDisplay:10.37,2013-03-25 06:36:00,
2013-03-25 01:41:00,22.9,17.9,30.08,SW,234,0.0,0.0,81,0.00,,,0.00,WeatherDisplay:10.37,2013-03-25 06:41:00,
2013-03-25 01:46:00,22.8,17.8,30.08,East,94,0.0,0.0,81,0.00,,,0.00,WeatherDisplay:10.37,2013-03-25 06:46:00,
2013-03-25 01:51:00,22.7,18.0,30.08,East,87,0.0,0.0,82,0.00,,,0.00,WeatherDisplay:10.37,2013-03-25 06:51:00,
2013-03-25 01:56:00,22.6,17.9,30.08,East,79,0.0,0.0,82,0.00,,,0.00,WeatherDisplay:10.37,2013-03-25 06:56:00,
2013-03-25 02:01:00,22.6,17.9,30.08,NE,45,0.0,0.0,82,0.00,,,0.00,WeatherDisplay:10.37,2013-03-25 07:01:00,
2013-03-25 02:06:00,22.6,17.9,30.08,SW,215,0.0,0.0,82,0.00,,,0.00,WeatherDisplay:10.37,2013-03-25 07:06:00,
2013-03-25 02:11:00,22.5,17.8,30.08,East,101,0.0,0.0,82,0.00,,,0.00,WeatherDisplay:10.37,2013-03-25 07:11:00,
2013-03-25 02:16:00,22.5,17.8,30.08,West,269,0.0,0.0,82,0.00,,,0.00,WeatherDisplay:10.37,2013-03-25 07:16:00,
2013-03-25 02:21:00,22.5,17.8,30.08,South,172,0.0,0.0,82,0.00,,,0.00,WeatherDisplay:10.37,2013-03-25 07:21:00,
2013-03-25 02:26:00,22.5,18.1,30.08,West,281,0.0,0.0,83,0.00,,,0.00,WeatherDisplay:10.37,2013-03-25 07:26:00,
2013-03-25 02:31:00,22.5,18.1,30.08,West,275,0.0,0.0,83,0.00,,,0.00,WeatherDisplay:10.37,2013-03-25 07:31:00,
2013-03-25 02:36:00,22.5,18.1,30.08,West,273,0.0,0.0,83,0.00,,,0.00,WeatherDisplay:10.37,2013-03-25 07:36:00,
2013-03-25 02:41:00,22.5,18.1,30.08,West,270,0.0,0.0,83,0.00,,,0.00,WeatherDisplay:10.37,2013-03-25 07:41:00,
2013-03-25 02:47:00,22.5,18.1,30.08,SW,225,0.0,0.0,83,0.00,,,0.00,WeatherDisplay:10.37,2013-03-25 07:47:00,
2013-03-25 02:52:00,22.5,18.1,30.08,West,263,0.0,0.0,83,0.00,,,0.00,WeatherDisplay:10.37,2013-03-25 07:52:00,
2013-03-25 02:57:00,22.4,18.0,30.08,West,271,0.0,0.0,83,0.00,,,0.00,WeatherDisplay:10.37,2013-03-25 07:57:00,
2013-03-25 03:02:00,22.4,18.0,30.08,WNW,300,0.0,0.0,83,0.00,,,0.00,WeatherDisplay:10.37,2013-03-25 08:02:00,
2013-03-25 03:07:00,22.4,18.3,30.08,WNW,284,0.0,0.0,84,0.00,,,0.00,WeatherDisplay:10.37,2013-03-25 08:07:00,
2013-03-25 03:12:00,22.5,18.4,30.08,SSE,166,0.0,0.0,84,0.00,,,0.00,WeatherDisplay:10.37,2013-03-25 08:12:00,
2013-03-25 03:17:00,22.5,18.4,30.08,West,263,0.0,0.0,84,0.00,,,0.00,WeatherDisplay:10.37,2013-03-25 08:17:00,
2013-03-25 03:22:00,22.5,18.4,30.08,SW,229,0.0,0.0,84,0.00,,,0.00,WeatherDisplay:10.37,2013-03-25 08:22:00,
2013-03-25 03:27:00,22.5,18.4,30.08,WNW,290,0.0,0.0,84,0.00,,,0.00,WeatherDisplay:10.37,2013-03-25 08:27:00,
2013-03-25 03:32:00,22.4,18.6,30.08,NW,307,0.0,0.0,85,0.00,,,0.00,WeatherDisplay:10.37,2013-03-25 08:32:00,
2013-03-25 03:37:00,22.4,18.6,30.08,WNW,297,0.0,0.0,85,0.00,,,0.00,WeatherDisplay:10.37,2013-03-25 08:37:00,
2013-03-25 03:42:00,22.4,18.6,30.08,West,275,0.0,0.0,85,0.00,,,0.00,WeatherDisplay:10.37,2013-03-25 08:42:00,
2013-03-25 03:47:00,22.2,20.2,30.08,WNW,295,0.0,0.0,92,0.00,,,0.00,WeatherDisplay:10.37,2013-03-25 08:47:00,
2013-03-25 03:52:00,22.1,18.3,30.08,NW,311,0.0,0.0,85,0.00,,,0.00,WeatherDisplay:10.37,2013-03-25 08:52:00,
2013-03-25 03:57:00,22.0,18.2,30.08,West,264,0.0,0.0,85,0.00,,,0.00,WeatherDisplay:10.37,2013-03-25 08:57:00,
2013-03-25 04:02:00,21.9,18.1,30.08,West,273,0.0,0.0,85,0.00,,,0.00,WeatherDisplay:10.37,2013-03-25 09:02:00,
2013-03-25 04:07:00,21.8,18.0,30.08,SW,233,0.0,0.0,85,0.00,,,0.00,WeatherDisplay:10.37,2013-03-25 09:07:00,
2013-03-25 04:12:00,21.8,18.0,30.07,West,269,0.0,0.0,85,0.00,,,0.00,WeatherDisplay:10.37,2013-03-25 09:12:00,
2013-03-25 04:17:00,21.8,18.0,30.08,West,261,0.0,0.0,85,0.00,,,0.00,WeatherDisplay:10.37,2013-03-25 09:17:00,
2013-03-25 04:22:00,21.8,18.3,30.08,West,270,0.0,0.0,86,0.00,,,0.00,WeatherDisplay:10.37,2013-03-25 09:22:00,
2013-03-25 04:28:00,21.9,18.4,30.08,West,269,0.0,0.0,86,0.00,,,0.00,WeatherDisplay:10.37,2013-03-25 09:28:00,
2013-03-25 04:32:00,22.0,18.5,30.08,West,280,0.0,0.0,86,0.00,,,0.00,WeatherDisplay:10.37,2013-03-25 09:32:00,
2013-03-25 04:38:00,22.1,18.6,30.08,West,276,0.0,0.0,86,0.00,,,0.00,WeatherDisplay:10.37,2013-03-25 09:38:00,
2013-03-25 04:43:00,22.2,18.7,30.08,NW,313,0.0,0.0,86,0.00,,,0.00,WeatherDisplay:10.37,2013-03-25 09:43:00,
2013-03-25 04:48:00,22.2,18.7,30.08,West,273,0.0,0.0,86,0.00,,,0.00,WeatherDisplay:10.37,2013-03-25 09:48:00,
2013-03-25 04:53:00,22.2,18.7,30.08,WNW,290,0.0,0.0,86,0.00,,,0.00,WeatherDisplay:10.37,2013-03-25 09:53:00,
2013-03-25 04:58:00,22.3,19.0,30.09,West,268,0.0,0.0,87,0.00,,,0.00,WeatherDisplay:10.37,2013-03-25 09:58:00,
2013-03-25 05:03:00,22.3,19.0,30.09,WNW,296,0.0,0.0,87,0.00,,,0.00,WeatherDisplay:10.37,2013-03-25 10:03:00,
2013-03-25 05:08:00,22.4,19.1,30.09,WSW,240,0.0,0.0,87,0.00,,,0.00,WeatherDisplay:10.37,2013-03-25 10:08:00,
2013-03-25 05:13:00,22.4,19.1,30.09,West,281,0.0,0.0,87,0.00,,,0.00,WeatherDisplay:10.37,2013-03-25 10:13:00,
2013-03-25 05:18:00,22.4,19.1,30.09,West,281,0.0,0.0,87,0.00,,,0.00,WeatherDisplay:10.37,2013-03-25 10:18:00,
2013-03-25 05:23:00,22.3,19.0,30.09,SW,235,0.0,0.0,87,0.00,,,0.00,WeatherDisplay:10.37,2013-03-25 10:23:00,
2013-03-25 05:28:00,22.3,19.3,30.09,WNW,284,0.0,0.0,88,0.00,,,0.00,WeatherDisplay:10.37,2013-03-25 10:28:00,
2013-03-25 05:33:00,22.2,19.2,30.09,WSW,244,0.0,0.0,88,0.00,,,0.00,WeatherDisplay:10.37,2013-03-25 10:33:00,
2013-03-25 05:38:00,22.2,19.2,30.10,West,265,0.0,0.0,88,0.00,,,0.00,WeatherDisplay:10.37,2013-03-25 10:38:00,
2013-03-25 05:43:00,22.1,19.1,30.09,West,271,0.0,0.0,88,0.00,,,0.00,WeatherDisplay:10.37,2013-03-25 10:43:00,
2013-03-25 05:48:00,22.1,19.1,30.10,WNW,287,0.0,0.0,88,0.00,,,0.00,WeatherDisplay:10.37,2013-03-25 10:48:00,
2013-03-25 05:53:00,22.0,19.3,30.10,WSW,238,0.0,0.0,89,0.00,,,0.00,WeatherDisplay:10.37,2013-03-25 10:53:00,
2013-03-25 05:58:00,22.0,19.3,30.10,South,183,0.0,0.0,89,0.00,,,0.00,WeatherDisplay:10.37,2013-03-25 10:58:00,
2013-03-25 06:03:00,22.0,19.3,30.10,West,277,0.0,0.0,89,0.00,,,0.00,WeatherDisplay:10.37,2013-03-25 11:03:00,
2013-03-25 06:08:00,22.0,19.3,30.10,West,267,0.0,0.0,89,0.00,,,0.00,WeatherDisplay:10.37,2013-03-25 11:08:00,
2013-03-25 06:13:00,22.0,19.3,30.10,WSW,246,0.0,0.0,89,0.00,,,0.00,WeatherDisplay:10.37,2013-03-25 11:13:00,
2013-03-25 06:18:00,22.1,19.6,30.10,West,280,0.0,0.0,90,0.00,,,0.00,WeatherDisplay:10.37,2013-03-25 11:18:00,
2013-03-25 06:23:00,22.2,19.7,30.10,NW,316,0.0,0.0,90,0.00,,,0.00,WeatherDisplay:10.37,2013-03-25 11:23:00,
2013-03-25 06:28:00,22.2,19.7,30.10,WNW,290,0.0,0.0,90,0.00,,,0.00,WeatherDisplay:10.37,2013-03-25 11:28:00,
2013-03-25 06:33:00,22.4,19.9,30.10,WNW,287,0.0,0.0,90,0.00,,,0.00,WeatherDisplay:10.37,2013-03-25 11:33:00,
2013-03-25 06:38:00,22.5,20.0,30.11,West,277,0.0,0.0,90,0.00,,,0.00,WeatherDisplay:10.37,2013-03-25 11:38:00,
2013-03-25 06:43:00,22.6,20.1,30.11,West,271,0.0,0.0,90,0.00,,,0.00,WeatherDisplay:10.37,2013-03-25 11:43:00,
2013-03-25 06:48:00,22.7,20.5,30.11,West,278,0.0,0.0,91,0.00,,,0.00,WeatherDisplay:10.37,2013-03-25 11:48:00,
2013-03-25 06:53:00,22.9,20.7,30.11,WNW,288,0.0,0.0,91,0.00,,,0.00,WeatherDisplay:10.37,2013-03-25 11:53:00,
2013-03-25 06:59:00,23.0,20.5,30.11,WSW,250,0.0,0.0,90,0.00,,,0.00,WeatherDisplay:10.37,2013-03-25 11:59:00,
2013-03-25 07:04:00,23.1,20.6,30.11,SE,129,0.0,0.0,90,0.00,CLR,,0.00,WeatherDisplay:10.37,2013-03-25 12:04:00,
2013-03-25 07:09:00,23.1,20.6,30.12,WSW,250,0.0,0.0,90,0.00,CLR,,0.00,WeatherDisplay:10.37,2013-03-25 12:09:00,
2013-03-25 07:14:00,23.3,20.8,30.12,WSW,252,0.0,0.0,90,0.00,CLR,,0.00,WeatherDisplay:10.37,2013-03-25 12:14:00,
2013-03-25 07:19:00,23.4,20.9,30.13,SE,141,0.0,0.0,90,0.00,CLR,,0.00,WeatherDisplay:10.37,2013-03-25 12:19:00,
2013-03-25 07:24:00,23.5,21.3,30.13,West,269,0.0,0.0,91,0.00,CLR,,0.00,WeatherDisplay:10.37,2013-03-25 12:24:00,
2013-03-25 07:29:00,23.6,21.4,30.13,West,278,0.0,0.0,91,0.00,CLR,,0.00,WeatherDisplay:10.37,2013-03-25 12:29:00,
2013-03-25 07:34:00,23.8,21.6,30.13,WSW,250,0.0,0.0,91,0.00,CLR,,0.00,WeatherDisplay:10.37,2013-03-25 12:34:00,
2013-03-25 07:39:00,24.2,22.0,30.13,West,268,0.0,0.0,91,0.00,CLR,,0.00,WeatherDisplay:10.37,2013-03-25 12:39:00,
2013-03-25 07:44:00,24.3,21.8,30.13,West,281,0.0,0.0,90,0.00,CLR,,0.00,WeatherDisplay:10.37,2013-03-25 12:44:00,
2013-03-25 07:49:00,24.4,21.9,30.14,West,276,0.0,0.0,90,0.00,CLR,,0.00,WeatherDisplay:10.37,2013-03-25 12:49:00,
2013-03-25 07:54:00,24.5,22.2,30.13,West,263,0.0,0.0,91,0.00,CLR,,0.00,WeatherDisplay:10.37,2013-03-25 12:54:00,
2013-03-25 07:59:00,24.7,22.4,30.14,WNW,288,0.0,0.0,91,0.00,CLR,,0.00,WeatherDisplay:10.37,2013-03-25 12:59:00,
2013-03-25 08:04:00,24.9,22.6,30.14,West,281,0.0,0.0,91,0.00,CLR,,0.00,WeatherDisplay:10.37,2013-03-25 13:04:00,
2013-03-25 08:09:00,25.1,22.8,30.14,West,275,0.0,0.0,91,0.00,CLR,,0.00,WeatherDisplay:10.37,2013-03-25 13:09:00,
2013-03-25 08:14:00,25.3,23.0,30.15,WNW,288,0.0,0.0,91,0.00,CLR,,0.00,WeatherDisplay:10.37,2013-03-25 13:14:00,
2013-03-25 08:19:00,25.6,23.3,30.15,NNW,344,0.0,0.0,91,0.00,CLR,,0.00,WeatherDisplay:10.37,2013-03-25 13:19:00,
2013-03-25 08:24:00,25.9,23.4,30.15,East,80,0.0,0.0,90,0.00,CLR,,0.00,WeatherDisplay:10.37,2013-03-25 13:24:00,
2013-03-25 08:29:00,26.1,23.6,30.15,West,272,0.0,0.0,90,0.00,CLR,,0.00,WeatherDisplay:10.37,2013-03-25 13:29:00,
2013-03-25 08:34:00,26.3,23.8,30.16,NW,325,0.0,0.0,90,0.00,CLR,,0.00,WeatherDisplay:10.37,2013-03-25 13:34:00,
2013-03-25 08:39:00,26.3,23.8,30.16,WNW,286,0.0,0.0,90,0.00,CLR,,0.00,WeatherDisplay:10.37,2013-03-25 13:39:00,
2013-03-25 08:44:00,26.5,24.0,30.16,NNW,348,0.0,0.0,90,0.00,CLR,,0.00,WeatherDisplay:10.37,2013-03-25 13:44:00,
2013-03-25 08:49:00,26.7,24.2,30.16,SE,126,0.0,0.0,90,0.00,CLR,,0.00,WeatherDisplay:10.37,2013-03-25 13:49:00,
2013-03-25 08:54:00,27.0,24.5,30.16,WNW,283,0.0,0.0,90,0.00,CLR,,0.00,WeatherDisplay:10.37,2013-03-25 13:54:00,
2013-03-25 08:59:00,27.2,24.4,30.17,SSE,155,0.0,0.0,89,0.00,CLR,,0.00,WeatherDisplay:10.37,2013-03-25 13:59:00,
2013-03-25 09:04:00,27.5,24.7,30.17,ESE,118,0.0,0.0,89,0.00,CLR,,0.00,WeatherDisplay:10.37,2013-03-25 14:04:00,
2013-03-25 09:09:00,27.7,24.6,30.17,SE,144,0.0,0.0,88,0.00,CLR,,0.00,WeatherDisplay:10.37,2013-03-25 14:09:00,
2013-03-25 09:14:00,27.8,24.7,30.17,SSE,160,0.0,0.0,88,0.00,CLR,,0.00,WeatherDisplay:10.37,2013-03-25 14:14:00,
2013-03-25 09:19:00,27.9,24.8,30.17,SE,146,0.0,0.0,88,0.00,CLR,,0.00,WeatherDisplay:10.37,2013-03-25 14:19:00,
2013-03-25 09:24:00,27.8,24.4,30.18,SE,138,0.0,0.0,87,0.00,CLR,,0.00,WeatherDisplay:10.37,2013-03-25 14:24:00,
2013-03-25 09:30:00,27.8,24.4,30.18,North,5,0.0,0.0,87,0.00,CLR,,0.00,WeatherDisplay:10.37,2013-03-25 14:30:00,
2013-03-25 09:35:00,27.8,24.2,30.18,ESE,121,0.0,0.0,86,0.00,CLR,,0.00,WeatherDisplay:10.37,2013-03-25 14:35:00,
2013-03-25 09:40:00,27.8,24.2,30.18,East,90,0.0,0.0,86,0.00,CLR,,0.00,WeatherDisplay:10.37,2013-03-25 14:40:00,
2013-03-25 09:45:00,27.7,24.1,30.18,SSE,161,0.0,0.0,86,0.00,CLR,,0.00,WeatherDisplay:10.37,2013-03-25 14:45:00,
2013-03-25 09:50:00,27.8,24.2,30.18,NW,304,0.0,0.0,86,0.00,CLR,,0.00,WeatherDisplay:10.37,2013-03-25 14:50:00,
2013-03-25 09:55:00,27.8,24.2,30.19,SE,134,0.0,0.0,86,0.00,CLR,,0.00,WeatherDisplay:10.37,2013-03-25 14:55:00,
2013-03-25 10:00:00,27.8,24.2,30.19,South,169,0.0,0.0,86,0.00,CLR,,0.00,WeatherDisplay:10.37,2013-03-25 15:00:00,
2013-03-25 10:05:00,27.9,24.5,30.19,SSE,162,0.0,0.0,87,0.00,CLR,,0.00,WeatherDisplay:10.37,2013-03-25 15:05:00,
2013-03-25 10:10:00,28.0,24.3,30.19,SSE,154,0.0,0.0,86,0.00,CLR,,0.00,WeatherDisplay:10.37,2013-03-25 15:10:00,
2013-03-25 10:15:00,28.0,24.1,30.20,SSE,162,0.0,0.0,85,0.00,CLR,,0.00,WeatherDisplay:10.37,2013-03-25 15:15:00,
2013-03-25 10:20:00,28.1,24.5,30.19,SSE,152,0.0,0.0,86,0.00,CLR,,0.00,WeatherDisplay:10.37,2013-03-25 15:20:00,
2013-03-25 10:25:00,28.0,24.1,30.20,SE,140,0.0,0.0,85,0.00,CLR,,0.00,WeatherDisplay:10.37,2013-03-25 15:25:00,
2013-03-25 10:30:00,28.1,24.2,30.20,East,95,0.0,0.0,85,0.00,CLR,,0.00,WeatherDisplay:10.37,2013-03-25 15:30:00,
2013-03-25 10:35:00,28.2,24.3,30.20,SE,138,0.0,0.0,85,0.00,CLR,,0.00,WeatherDisplay:10.37,2013-03-25 15:35:00,
2013-03-25 10:40:00,28.3,24.4,30.21,East,90,0.0,0.0,85,0.00,CLR,,0.00,WeatherDisplay:10.37,2013-03-25 15:40:00,
2013-03-25 10:45:00,28.5,24.6,30.21,SE,129,0.0,0.0,85,0.00,CLR,,0.00,WeatherDisplay:10.37,2013-03-25 15:45:00,
2013-03-25 10:50:00,28.6,24.4,30.21,South,188,0.0,0.0,84,0.00,CLR,,0.00,WeatherDisplay:10.37,2013-03-25 15:50:00,
2013-03-25 10:55:00,28.6,24.1,30.21,East,93,0.0,0.0,83,0.00,CLR,,0.00,WeatherDisplay:10.37,2013-03-25 15:55:00,
2013-03-25 11:00:00,28.7,24.2,30.21,ENE,78,0.0,0.0,83,0.00,CLR,,0.00,WeatherDisplay:10.37,2013-03-25 16:00:00,
2013-03-25 11:05:00,28.8,24.3,30.22,SE,133,0.0,0.0,83,0.00,CLR,,0.00,WeatherDisplay:10.37,2013-03-25 16:05:00,
2013-03-25 11:10:00,28.8,24.0,30.22,ENE,76,0.0,0.0,82,0.00,CLR,,0.00,WeatherDisplay:10.37,2013-03-25 16:10:00,
2013-03-25 11:15:00,28.8,23.7,30.22,SW,224,0.0,0.0,81,0.00,CLR,,0.00,WeatherDisplay:10.37,2013-03-25 16:15:00,
2013-03-25 11:20:00,29.0,24.2,30.22,WSW,245,0.0,0.0,82,0.00,CLR,,0.00,WeatherDisplay:10.37,2013-03-25 16:20:00,
2013-03-25 11:25:00,29.1,24.0,30.22,West,279,0.0,0.0,81,0.00,CLR,,0.00,WeatherDisplay:10.37,2013-03-25 16:25:00,
2013-03-25 11:30:00,29.2,24.1,30.22,SE,128,0.0,0.0,81,0.00,CLR,,0.00,WeatherDisplay:10.37,2013-03-25 16:30:00,
2013-03-25 11:35:00,29.4,23.7,30.22,West,271,0.0,0.0,79,0.00,CLR,,0.00,WeatherDisplay:10.37,2013-03-25 16:35:00,
2013-03-25 11:40:00,29.4,23.7,30.22,East,83,0.0,0.0,79,0.00,CLR,,0.00,WeatherDisplay:10.37,2013-03-25 16:40:00,
2013-03-25 11:45:00,29.4,23.7,30.23,SE,140,0.0,0.0,79,0.00,CLR,,0.00,WeatherDisplay:10.37,2013-03-25 16:45:00,
2013-03-25 11:50:00,29.7,24.0,30.22,SSE,149,0.0,0.0,79,0.00,CLR,,0.00,WeatherDisplay:10.37,2013-03-25 16:50:00,
2013-03-25 11:55:00,30.0,24.3,30.22,NW,319,0.0,0.0,79,0.00,CLR,,0.00,WeatherDisplay:10.37,2013-03-25 16:55:00,
2013-03-25 12:00:00,30.0,23.7,30.22,ENE,57,0.0,0.0,77,0.00,CLR,,0.00,WeatherDisplay:10.37,2013-03-25 17:00:00,
2013-03-25 12:05:00,30.0,23.7,30.22,East,84,0.0,0.0,77,0.00,CLR,,0.00,WeatherDisplay:10.37,2013-03-25 17:05:00,
2013-03-25 12:10:00,30.2,23.9,30.23,ESE,112,0.0,0.0,77,0.00,CLR,,0.00,WeatherDisplay:10.37,2013-03-25 17:10:00,
2013-03-25 12:15:00,30.5,23.8,30.23,North,5,0.0,0.0,76,0.00,CLR,,0.00,WeatherDisplay:10.37,2013-03-25 17:15:00,
2013-03-25 12:20:00,30.2,23.5,30.23,NNW,344,0.0,0.0,76,0.00,CLR,,0.00,WeatherDisplay:10.37,2013-03-25 17:20:00,
2013-03-25 12:25:00,30.2,23.5,30.23,South,180,0.0,0.0,76,0.00,CLR,,0.00,WeatherDisplay:10.37,2013-03-25 17:25:00,
2013-03-25 12:30:00,30.4,24.1,30.23,SE,132,0.0,0.0,77,0.00,CLR,,0.00,WeatherDisplay:10.37,2013-03-25 17:30:00,
2013-03-25 12:35:00,31.0,24.6,30.23,WNW,282,6.0,6.0,77,0.00,CLR,,0.00,WeatherDisplay:10.37,2013-03-25 17:35:00,
2013-03-25 12:40:00,31.4,24.7,30.23,WSW,247,3.5,3.5,76,0.00,CLR,,0.00,WeatherDisplay:10.37,2013-03-25 17:40:00,
2013-03-25 12:45:00,31.5,24.5,30.23,WNW,294,4.0,4.0,75,0.00,CLR,,0.00,WeatherDisplay:10.37,2013-03-25 17:45:00,
2013-03-25 12:50:00,31.2,24.5,30.23,South,173,3.5,3.5,76,0.00,CLR,,0.00,WeatherDisplay:10.37,2013-03-25 17:50:00,
2013-03-25 12:55:00,30.9,23.9,30.23,South,173,5.8,5.8,75,0.00,CLR,,0.00,WeatherDisplay:10.37,2013-03-25 17:55:00,
2013-03-25 13:00:00,30.7,24.0,30.23,WNW,288,6.0,6.0,76,0.00,CLR,,0.00,WeatherDisplay:10.37,2013-03-25 18:00:00,
2013-03-25 13:05:00,30.8,24.1,30.23,SE,146,6.9,6.9,76,0.00,CLR,,0.00,WeatherDisplay:10.37,2013-03-25 18:05:00,
2013-03-25 13:10:00,30.7,24.3,30.24,WNW,282,3.5,3.5,77,0.00,CLR,,0.00,WeatherDisplay:10.37,2013-03-25 18:10:00,
2013-03-25 13:15:00,30.7,24.3,30.24,NE,34,4.6,4.6,77,0.00,CLR,,0.00,WeatherDisplay:10.37,2013-03-25 18:15:00,
2013-03-25 13:20:00,30.6,24.2,30.23,SE,141,3.5,3.5,77,0.00,CLR,,0.00,WeatherDisplay:10.37,2013-03-25 18:20:00,
2013-03-25 13:25:00,30.6,24.2,30.23,South,190,3.5,3.5,77,0.00,CLR,,0.00,WeatherDisplay:10.37,2013-03-25 18:25:00,
2013-03-25 13:30:00,30.9,24.5,30.23,West,269,4.6,4.6,77,0.00,CLR,,0.00,WeatherDisplay:10.37,2013-03-25 18:30:00,
2013-03-25 13:35:00,31.3,24.9,30.23,South,172,2.3,2.3,77,0.00,CLR,,0.00,WeatherDisplay:10.37,2013-03-25 18:35:00,
2013-03-25 13:40:00,31.3,24.6,30.23,South,178,2.3,2.3,76,0.00,CLR,,0.00,WeatherDisplay:10.37,2013-03-25 18:40:00,
2013-03-25 13:45:00,31.5,25.1,30.23,SE,144,4.6,4.6,77,0.00,CLR,,0.00,WeatherDisplay:10.37,2013-03-25 18:45:00,
2013-03-25 13:50:00,31.4,24.7,30.24,SSW,211,9.2,9.2,76,0.00,CLR,,0.00,WeatherDisplay:10.37,2013-03-25 18:50:00,
2013-03-25 13:55:00,31.2,24.8,30.23,South,182,2.3,2.3,77,0.00,CLR,,0.00,WeatherDisplay:10.37,2013-03-25 18:55:00,
2013-03-25 14:00:00,31.1,24.4,30.24,East,82,6.9,6.9,76,0.00,CLR,,0.00,WeatherDisplay:10.37,2013-03-25 19:00:00,
2013-03-25 14:05:00,31.2,24.8,30.24,WNW,291,3.5,3.5,77,0.00,CLR,,0.00,WeatherDisplay:10.37,2013-03-25 19:05:00,
2013-03-25 14:10:00,31.6,24.9,30.24,North,355,3.5,3.5,76,0.00,CLR,,0.00,WeatherDisplay:10.37,2013-03-25 19:10:00,
2013-03-25 14:15:00,31.8,24.8,30.23,West,277,9.2,9.2,75,0.00,CLR,,0.00,WeatherDisplay:10.37,2013-03-25 19:15:00,
2013-03-25 14:20:00,32.1,25.1,30.23,SSE,153,3.5,3.5,75,0.00,CLR,,0.00,WeatherDisplay:10.37,2013-03-25 19:20:00,
2013-03-25 14:26:00,32.3,24.9,30.23,WNW,296,4.6,4.6,74,0.00,CLR,,0.00,WeatherDisplay:10.37,2013-03-25 19:26:00,
2013-03-25 14:30:00,32.5,24.8,30.23,NNE,13,4.6,4.6,73,0.00,CLR,,0.00,WeatherDisplay:10.37,2013-03-25 19:30:00,
2013-03-25 14:36:00,32.7,25.3,30.23,ESE,114,3.5,3.5,74,0.00,CLR,,0.00,WeatherDisplay:10.37,2013-03-25 19:36:00,
2013-03-25 14:41:00,32.5,24.8,30.23,SE,133,3.5,3.5,73,0.00,CLR,,0.00,WeatherDisplay:10.37,2013-03-25 19:41:00,
2013-03-25 14:46:00,32.7,24.7,30.23,NE,53,3.5,3.6,72,0.00,CLR,,0.00,WeatherDisplay:10.37,2013-03-25 19:46:00,
2013-03-25 14:51:00,32.8,25.1,30.23,SE,146,5.8,5.8,73,0.01,RA,,0.01,WeatherDisplay:10.37,2013-03-25 19:51:00,
2013-03-25 14:56:00,32.9,25.2,30.23,NNW,327,3.5,3.5,73,0.01,RA,,0.01,WeatherDisplay:10.37,2013-03-25 19:56:00,
2013-03-25 15:01:00,32.9,25.2,30.23,SSE,156,6.9,6.9,73,0.01,CLR,,0.01,WeatherDisplay:10.37,2013-03-25 20:01:00,
2013-03-25 15:06:00,32.8,25.4,30.23,South,171,3.5,3.5,74,0.02,RA,,0.02,WeatherDisplay:10.37,2013-03-25 20:06:00,
2013-03-25 15:11:00,32.9,25.5,30.23,SSE,147,1.1,1.1,74,0.02,RA,,0.02,WeatherDisplay:10.37,2013-03-25 20:11:00,
2013-03-25 15:16:00,33.0,25.3,30.23,East,89,3.5,3.5,73,0.02,CLR,,0.02,WeatherDisplay:10.37,2013-03-25 20:16:00,
2013-03-25 15:21:00,32.9,25.2,30.23,WNW,302,7.0,7.0,73,0.02,CLR,,0.02,WeatherDisplay:10.37,2013-03-25 20:21:00,
2013-03-25 15:26:00,32.7,25.0,30.24,West,280,10.0,10.0,73,0.03,RA,,0.03,WeatherDisplay:10.37,2013-03-25 20:26:00,
2013-03-25 15:31:00,32.4,25.0,30.23,East,80,2.0,2.0,74,0.03,RA,,0.03,WeatherDisplay:10.37,2013-03-25 20:31:00,
2013-03-25 15:36:00,32.6,25.6,30.23,SSW,199,3.0,3.0,75,0.03,CLR,,0.03,WeatherDisplay:10.37,2013-03-25 20:36:00,
2013-03-25 15:41:00,32.7,25.6,30.23,West,281,3.5,3.5,75,0.04,RA,,0.04,WeatherDisplay:10.37,2013-03-25 20:41:00,
2013-03-25 15:46:00,32.7,25.3,30.23,South,172,6.9,6.9,74,0.04,RA,,0.04,WeatherDisplay:10.37,2013-03-25 20:46:00,
2013-03-25 15:52:00,32.3,24.9,30.23,NW,309,12.7,12.7,74,0.03,CLR,,0.04,WeatherDisplay:10.37,2013-03-25 20:52:00,
2013-03-25 15:57:00,32.3,25.3,30.23,ESE,119,2.3,2.3,75,0.03,CLR,,0.04,WeatherDisplay:10.37,2013-03-25 20:57:00,
2013-03-25 16:02:00,32.4,25.4,30.24,SE,136,4.0,4.0,75,0.03,CLR,,0.04,WeatherDisplay:10.37,2013-03-25 21:02:00,
2013-03-25 16:07:00,32.3,25.6,30.24,ESE,112,9.2,9.2,76,0.03,RA,,0.05,WeatherDisplay:10.37,2013-03-25 21:07:00,
2013-03-25 16:13:00,32.6,25.6,30.24,WNW,292,5.0,5.0,75,0.03,RA,,0.05,WeatherDisplay:10.37,2013-03-25 21:13:00,
2013-03-25 16:18:00,32.9,25.5,30.24,WSW,241,11.5,11.5,74,0.03,CLR,,0.05,WeatherDisplay:10.37,2013-03-25 21:18:00,
2013-03-25 16:23:00,33.2,25.8,30.24,West,269,8.0,8.0,74,0.03,CLR,,0.05,WeatherDisplay:10.37,2013-03-25 21:23:00,
2013-03-25 16:28:00,33.0,25.6,30.24,SE,140,2.3,2.3,74,0.02,CLR,,0.05,WeatherDisplay:10.37,2013-03-25 21:28:00,
2013-03-25 16:33:00,32.5,25.8,30.25,SSE,148,3.5,3.5,76,0.03,RA,,0.06,WeatherDisplay:10.37,2013-03-25 21:33:00,
2013-03-25 16:38:00,32.4,26.0,30.25,East,96,3.5,3.5,77,0.03,RA,,0.06,WeatherDisplay:10.37,2013-03-25 21:38:00,
2013-03-25 16:43:00,32.7,26.3,30.25,NW,326,9.2,9.2,77,0.02,CLR,,0.06,WeatherDisplay:10.37,2013-03-25 21:43:00,
2013-03-25 16:48:00,32.7,26.0,30.25,SE,131,3.5,3.5,76,0.02,CLR,,0.06,WeatherDisplay:10.37,2013-03-25 21:48:00,
2013-03-25 16:53:00,32.3,26.5,30.25,West,263,3.5,3.5,79,0.02,CLR,,0.06,WeatherDisplay:10.37,2013-03-25 21:53:00,
2013-03-25 16:58:00,32.0,26.8,30.25,SE,146,4.6,4.6,81,0.02,CLR,,0.06,WeatherDisplay:10.37,2013-03-25 21:58:00,
2013-03-25 17:03:00,31.9,26.4,30.25,East,82,3.5,3.5,80,0.02,CLR,,0.06,WeatherDisplay:10.37,2013-03-25 22:03:00,
2013-03-25 17:08:00,31.9,26.7,30.25,East,80,1.1,1.1,81,0.01,CLR,,0.06,WeatherDisplay:10.37,2013-03-25 22:08:00,
2013-03-25 17:13:00,31.8,26.6,30.26,SSW,200,1.1,0.0,81,0.01,CLR,,0.06,WeatherDisplay:10.37,2013-03-25 22:13:00,
2013-03-25 17:18:00,31.7,27.1,30.26,SW,216,0.0,0.0,83,0.02,RA,,0.07,WeatherDisplay:10.37,2013-03-25 22:18:00,
2013-03-25 17:23:00,31.6,27.3,30.26,SE,130,2.3,2.3,84,0.02,RA,,0.07,WeatherDisplay:10.37,2013-03-25 22:23:00,
2013-03-25 17:28:00,31.5,27.2,30.26,SSW,195,3.5,3.5,84,0.02,CLR,,0.07,WeatherDisplay:10.37,2013-03-25 22:28:00,
2013-03-25 17:33:00,31.3,27.0,30.26,SSE,148,1.1,1.1,84,0.01,CLR,,0.07,WeatherDisplay:10.37,2013-03-25 22:33:00,
2013-03-25 17:38:00,31.2,27.2,30.26,SE,137,3.5,3.5,85,0.01,CLR,,0.07,WeatherDisplay:10.37,2013-03-25 22:38:00,
2013-03-25 17:43:00,31.4,27.7,30.26,SE,139,2.3,0.0,86,0.01,CLR,,0.07,WeatherDisplay:10.37,2013-03-25 22:43:00,
2013-03-25 17:48:00,31.5,27.8,30.27,SE,142,0.0,0.1,86,0.01,CLR,,0.07,WeatherDisplay:10.37,2013-03-25 22:48:00,
2013-03-25 17:53:00,31.6,27.9,30.27,ESE,108,1.1,1.1,86,0.01,CLR,,0.07,WeatherDisplay:10.37,2013-03-25 22:53:00,
2013-03-25 17:58:00,31.4,27.7,30.27,East,85,2.3,2.3,86,0.01,CLR,,0.07,WeatherDisplay:10.37,2013-03-25 22:58:00,
2013-03-25 18:03:00,31.2,27.5,30.27,SSE,154,3.5,3.5,86,0.01,CLR,,0.07,WeatherDisplay:10.37,2013-03-25 23:03:00,
2013-03-25 18:08:00,30.9,27.5,30.27,North,5,1.1,1.1,87,0.01,CLR,,0.07,WeatherDisplay:10.37,2013-03-25 23:08:00,
2013-03-25 18:13:00,30.8,27.7,30.27,SSW,198,3.5,3.5,88,0.01,CLR,,0.07,WeatherDisplay:10.37,2013-03-25 23:13:00,
2013-03-25 18:18:00,30.8,27.7,30.27,ENE,73,0.0,0.0,88,0.00,CLR,,0.07,WeatherDisplay:10.37,2013-03-25 23:18:00,
2013-03-25 18:23:00,30.8,27.7,30.27,NE,42,1.0,1.0,88,0.01,RA,,0.08,WeatherDisplay:10.37,2013-03-25 23:23:00,
2013-03-25 18:28:00,30.8,27.7,30.28,NNW,331,2.3,2.3,88,0.01,RA,,0.08,WeatherDisplay:10.37,2013-03-25 23:28:00,
2013-03-25 18:33:00,30.8,27.4,30.28,West,268,3.5,3.5,87,0.01,CLR,,0.08,WeatherDisplay:10.37,2013-03-25 23:33:00,
2013-03-25 18:38:00,30.8,27.4,30.28,ESE,111,2.0,2.0,87,0.01,CLR,,0.08,WeatherDisplay:10.37,2013-03-25 23:38:00,
2013-03-25 18:43:00,30.8,27.1,30.28,North,5,2.3,0.0,86,0.01,CLR,,0.08,WeatherDisplay:10.37,2013-03-25 23:43:00,
2013-03-25 18:48:00,30.8,27.1,30.28,ESE,119,3.5,3.5,86,0.01,CLR,,0.08,WeatherDisplay:10.37,2013-03-25 23:48:00,
2013-03-25 18:53:00,30.8,27.1,30.28,SE,136,0.0,0.0,86,0.01,CLR,,0.08,WeatherDisplay:10.37,2013-03-25 23:53:00,
2013-03-25 18:58:00,30.7,27.0,30.29,South,189,2.3,2.3,86,0.01,CLR,,0.08,WeatherDisplay:10.37,2013-03-25 23:58:00,
2013-03-25 19:03:00,30.6,26.9,30.29,West,274,3.5,0.0,86,0.01,CLR,,0.08,WeatherDisplay:10.37,2013-03-26 00:03:00,
2013-03-25 19:08:00,30.5,26.8,30.29,SSW,196,5.8,5.8,86,0.01,CLR,,0.08,WeatherDisplay:10.37,2013-03-26 00:08:00,
2013-03-25 19:13:00,30.4,26.7,30.30,SSE,163,1.1,1.1,86,0.01,CLR,,0.08,WeatherDisplay:10.37,2013-03-26 00:13:00,
2013-03-25 19:18:00,30.3,26.6,30.30,SW,222,2.0,2.0,86,0.01,CLR,,0.08,WeatherDisplay:10.37,2013-03-26 00:18:00,
2013-03-25 19:23:00,30.2,26.5,30.30,East,90,3.0,3.0,86,0.00,CLR,,0.08,WeatherDisplay:10.37,2013-03-26 00:23:00,
2013-03-25 19:28:00,30.2,26.5,30.30,West,276,3.0,3.0,86,0.00,CLR,,0.08,WeatherDisplay:10.37,2013-03-26 00:28:00,
2013-03-25 19:33:00,30.1,26.4,30.30,SSE,149,1.1,0.0,86,0.00,CLR,,0.08,WeatherDisplay:10.37,2013-03-26 00:33:00,
2013-03-25 19:38:00,30.1,26.4,30.30,ENE,66,1.1,1.1,86,0.00,CLR,,0.08,WeatherDisplay:10.37,2013-03-26 00:38:00,
2013-03-25 19:43:00,29.9,26.2,30.30,East,88,4.6,4.6,86,0.00,CLR,,0.08,WeatherDisplay:10.37,2013-03-26 00:43:00,
2013-03-25 19:48:00,29.8,26.1,30.31,West,263,6.9,6.9,86,0.00,CLR,,0.08,WeatherDisplay:10.37,2013-03-26 00:48:00,
2013-03-25 19:53:00,29.8,26.4,30.31,West,278,1.1,0.0,87,0.00,CLR,,0.08,WeatherDisplay:10.37,2013-03-26 00:53:00,
2013-03-25 19:58:00,29.7,26.3,30.31,SSE,153,3.5,3.5,87,0.00,CLR,,0.08,WeatherDisplay:10.37,2013-03-26 00:58:00,
2013-03-25 20:03:00,29.7,26.0,30.31,West,267,1.1,1.1,86,0.00,CLR,,0.08,WeatherDisplay:10.37,2013-03-26 01:03:00,
2013-03-25 20:08:00,29.7,26.0,30.31,NW,322,2.3,0.0,86,0.00,CLR,,0.08,WeatherDisplay:10.37,2013-03-26 01:08:00,
2013-03-25 20:14:00,29.6,25.9,30.31,WNW,299,3.5,3.5,86,0.00,CLR,,0.08,WeatherDisplay:10.37,2013-03-26 01:14:00,
2013-03-25 20:19:00,29.5,25.8,30.31,ESE,105,3.5,3.5,86,0.00,CLR,,0.08,WeatherDisplay:10.37,2013-03-26 01:19:00,
2013-03-25 20:24:00,29.4,25.7,30.32,SSE,155,1.1,0.0,86,0.00,CLR,,0.08,WeatherDisplay:10.37,2013-03-26 01:24:00,
2013-03-25 20:29:00,29.3,25.6,30.31,SE,128,1.1,1.1,86,0.00,CLR,,0.08,WeatherDisplay:10.37,2013-03-26 01:29:00,
2013-03-25 20:34:00,29.3,25.6,30.31,West,281,0.0,0.0,86,0.00,CLR,,0.08,WeatherDisplay:10.37,2013-03-26 01:34:00,
2013-03-25 20:39:00,29.2,25.5,30.32,WSW,241,0.0,0.0,86,0.00,CLR,,0.08,WeatherDisplay:10.37,2013-03-26 01:39:00,
2013-03-25 20:44:00,29.1,25.4,30.31,East,85,2.3,2.3,86,0.00,CLR,,0.08,WeatherDisplay:10.37,2013-03-26 01:44:00,
2013-03-25 20:49:00,29.1,25.4,30.32,SW,231,1.1,1.1,86,0.00,CLR,,0.08,WeatherDisplay:10.37,2013-03-26 01:49:00,
2013-03-25 20:54:00,29.0,25.3,30.32,WNW,284,1.1,0.0,86,0.00,CLR,,0.08,WeatherDisplay:10.37,2013-03-26 01:54:00,
2013-03-25 20:59:00,29.0,25.6,30.32,West,261,2.3,2.3,87,0.00,CLR,,0.08,WeatherDisplay:10.37,2013-03-26 01:59:00,
2013-03-25 21:04:00,28.9,25.5,30.32,West,261,0.0,0.0,87,0.00,CLR,,0.08,WeatherDisplay:10.37,2013-03-26 02:04:00,
2013-03-25 21:09:00,28.9,25.5,30.32,WSW,249,0.0,0.0,87,0.00,CLR,,0.08,WeatherDisplay:10.37,2013-03-26 02:09:00,
2013-03-25 21:14:00,28.9,25.5,30.32,SE,127,0.0,0.0,87,0.00,CLR,,0.08,WeatherDisplay:10.37,2013-03-26 02:14:00,
2013-03-25 21:19:00,28.9,25.5,30.33,West,262,3.5,3.5,87,0.00,CLR,,0.08,WeatherDisplay:10.37,2013-03-26 02:19:00,
2013-03-25 21:24:00,28.9,25.5,30.33,SW,232,0.0,0.0,87,0.00,CLR,,0.08,WeatherDisplay:10.37,2013-03-26 02:24:00,
2013-03-25 21:29:00,28.9,25.2,30.33,NW,308,1.1,1.1,86,0.00,CLR,,0.08,WeatherDisplay:10.37,2013-03-26 02:29:00,
2013-03-25 21:34:00,28.9,25.2,30.33,WNW,288,0.0,0.0,86,0.00,CLR,,0.08,WeatherDisplay:10.37,2013-03-26 02:34:00,
2013-03-25 21:39:00,28.9,25.2,30.33,SW,219,0.0,0.0,86,0.00,CLR,,0.08,WeatherDisplay:10.37,2013-03-26 02:39:00,
2013-03-25 21:44:00,28.9,25.0,30.34,West,266,0.0,0.0,85,0.00,CLR,,0.08,WeatherDisplay:10.37,2013-03-26 02:44:00,
2013-03-25 21:49:00,28.9,25.0,30.34,West,267,0.0,0.0,85,0.00,CLR,,0.08,WeatherDisplay:10.37,2013-03-26 02:49:00,
2013-03-25 21:54:00,28.9,25.0,30.34,West,265,0.0,0.0,85,0.00,CLR,,0.08,WeatherDisplay:10.37,2013-03-26 02:54:00,
2013-03-25 21:59:00,28.9,25.0,30.34,West,261,1.1,1.1,85,0.00,CLR,,0.08,WeatherDisplay:10.37,2013-03-26 02:59:00,
2013-03-25 22:04:00,28.9,24.7,30.34,West,260,1.1,0.0,84,0.00,CLR,,0.08,WeatherDisplay:10.37,2013-03-26 03:04:00,
2013-03-25 22:09:00,28.9,24.7,30.34,SE,131,1.1,1.1,84,0.00,CLR,,0.08,WeatherDisplay:10.37,2013-03-26 03:09:00,
2013-03-25 22:14:00,29.0,24.8,30.34,West,272,0.0,0.0,84,0.00,CLR,,0.08,WeatherDisplay:10.37,2013-03-26 03:14:00,
2013-03-25 22:19:00,28.9,24.7,30.35,WSW,246,0.0,0.0,84,0.00,CLR,,0.08,WeatherDisplay:10.37,2013-03-26 03:19:00,
2013-03-25 22:24:00,28.9,24.4,30.35,WSW,257,0.0,0.0,83,0.00,CLR,,0.08,WeatherDisplay:10.37,2013-03-26 03:24:00,
2013-03-25 22:29:00,28.9,24.4,30.35,West,265,1.0,1.0,83,0.00,CLR,,0.08,WeatherDisplay:10.37,2013-03-26 03:29:00,
2013-03-25 22:34:00,28.9,24.4,30.34,West,281,2.3,2.3,83,0.00,CLR,,0.08,WeatherDisplay:10.37,2013-03-26 03:34:00,
2013-03-25 22:39:00,28.8,24.3,30.35,West,278,0.0,0.0,83,0.00,CLR,,0.08,WeatherDisplay:10.37,2013-03-26 03:39:00,
2013-03-25 22:44:00,28.8,24.3,30.35,West,261,0.0,0.0,83,0.00,CLR,,0.08,WeatherDisplay:10.37,2013-03-26 03:44:00,
2013-03-25 22:49:00,28.8,24.0,30.35,WNW,286,1.1,1.1,82,0.00,CLR,,0.08,WeatherDisplay:10.37,2013-03-26 03:49:00,
2013-03-25 22:54:00,28.7,23.9,30.35,WSW,247,2.0,2.0,82,0.00,CLR,,0.08,WeatherDisplay:10.37,2013-03-26 03:54:00,
2013-03-25 22:59:00,28.6,23.8,30.35,South,182,1.1,1.1,82,0.00,CLR,,0.08,WeatherDisplay:10.37,2013-03-26 03:59:00,
2013-03-25 23:00:00,28.6,23.8,30.35,South,185,1.1,0.0,82,0.00,CLR,,0.08,WeatherDisplay:10.37,2013-03-26 04:00:00,
2013-03-25 23:05:00,28.6,23.8,30.35,WSW,243,1.0,1.0,82,0.00,,,0.08,WeatherDisplay:10.37,2013-03-26 04:05:00,
2013-03-25 23:10:00,28.6,23.8,30.35,NW,315,0.0,0.0,82,0.00,,,0.08,WeatherDisplay:10.37,2013-03-26 04:10:00,
2013-03-25 23:15:00,28.5,23.7,30.35,WNW,291,0.0,0.0,82,0.00,,,0.08,WeatherDisplay:10.37,2013-03-26 04:15:00,
2013-03-25 23:20:00,28.4,23.3,30.35,SSW,199,0.0,0.0,81,0.00,,,0.08,WeatherDisplay:10.37,2013-03-26 04:20:00,
2013-03-25 23:25:00,28.3,23.2,30.36,South,179,2.3,2.3,81,0.00,,,0.08,WeatherDisplay:10.37,2013-03-26 04:25:00,
2013-03-25 23:30:00,28.2,23.1,30.36,East,101,0.0,0.0,81,0.00,,,0.08,WeatherDisplay:10.37,2013-03-26 04:30:00,
2013-03-25 23:35:00,28.1,22.7,30.36,West,268,0.0,0.0,80,0.00,,,0.08,WeatherDisplay:10.37,2013-03-26 04:35:00,
2013-03-25 23:40:00,28.1,22.7,30.35,West,269,0.0,0.0,80,0.00,,,0.08,WeatherDisplay:10.37,2013-03-26 04:40:00,
2013-03-25 23:45:00,27.9,22.2,30.35,West,269,0.0,0.0,79,0.00,,,0.08,WeatherDisplay:10.37,2013-03-26 04:45:00,
2013-03-25 23:50:00,27.8,22.4,30.35,West,265,0.0,0.0,80,0.00,,,0.08,WeatherDisplay:10.37,2013-03-26 04:50:00,
2013-03-25 23:55:00,27.6,22.2,30.35,WNW,291,2.3,0.0,80,0.00,,,0.08,WeatherDisplay:10.37,2013-03-26 04:55:00,